Location: Mary A Oil Field
(38.5606°N, 98.9545°W)
Time: 12:25:42
(UTC+00:00)

COSMOS 2455 - Pass Details

Date: 20 January 2020
Orbit: 902 x 907 km, 67.1° (Epoch: 17 February)

Event Time Altitude Azimuth Distance (km) Brightness Sun altitude
Rises 11:24:44 0° 192° (SSW) 3,510 5.8 -28.2°
Reaches altitude 10° 11:27:16 10° 188° (S) 2,574 5.2 -27.7°
Maximum altitude 11:33:04 55° 112° (ESE) 1,083 3.5 -26.5°
Drops below altitude 10° 11:38:54 10° 37° (NE) 2,592 5.6 -25.4°
Sets 11:41:27 0° 33° (NNE) 3,538 6.3 -24.9°
